Time,TemperatureF,DewpointF,PressureIn,WindDirection,WindDirectionDegrees,WindSpeedMPH,WindSpeedGustMPH,Humidity,HourlyPrecipIn,Conditions,Clouds,dailyrainin,SolarRadiationWatts/m^2,SoftwareType,DateUTC
2013-04-13 00:00:00,53.3,44.1,29.91,SSE,158,0.0,2.0,71,0.00,,,0.00,0,Wunderground v.1.15,2013-04-13 07:00:00,
2013-04-13 00:10:00,53.0,44.6,29.91,West,262,1.0,1.0,73,0.00,,,0.00,0,Wunderground v.1.15,2013-04-13 07:10:00,
2013-04-13 00:20:00,52.8,44.4,29.91,SSW,194,1.0,1.0,73,0.00,,,0.00,0,Wunderground v.1.15,2013-04-13 07:20:00,
2013-04-13 00:30:00,52.6,44.5,29.91,SE,136,1.0,1.0,74,0.00,,,0.00,0,Wunderground v.1.15,2013-04-13 07:30:00,
2013-04-13 00:40:00,52.4,44.7,29.91,SSE,152,2.0,4.0,75,0.00,,,0.00,0,Wunderground v.1.15,2013-04-13 07:40:00,
2013-04-13 00:50:00,52.1,44.8,29.91,SSE,153,2.0,2.0,76,0.00,,,0.00,0,Wunderground v.1.15,2013-04-13 07:50:00,
2013-04-13 01:00:00,51.9,44.6,29.91,SSE,161,2.0,4.0,76,0.00,,,0.00,0,Wunderground v.1.15,2013-04-13 08:00:00,
2013-04-13 01:10:00,51.6,44.6,29.91,SSE,157,1.0,3.0,77,0.00,,,0.00,0,Wunderground v.1.15,2013-04-13 08:10:00,
2013-04-13 01:20:00,51.3,44.7,29.91,SSE,160,2.0,4.0,78,0.00,,,0.00,0,Wunderground v.1.15,2013-04-13 08:20:00,
2013-04-13 01:30:00,51.0,44.7,29.91,South,176,1.0,3.0,79,0.00,,,0.00,0,Wunderground v.1.15,2013-04-13 08:30:00,
2013-04-13 01:50:00,50.5,44.6,29.91,SSE,149,2.0,4.0,80,0.00,,,0.00,0,Wunderground v.1.15,2013-04-13 08:50:00,
2013-04-13 02:00:00,50.3,44.7,29.90,SSE,152,2.0,2.0,81,0.00,,,0.00,0,Wunderground v.1.15,2013-04-13 09:00:00,
2013-04-13 02:10:00,50.2,44.6,29.90,SE,141,2.0,2.0,81,0.00,,,0.00,0,Wunderground v.1.15,2013-04-13 09:10:00,
2013-04-13 02:20:00,50.1,44.5,29.90,ESE,119,1.0,6.0,81,0.00,,,0.00,0,Wunderground v.1.15,2013-04-13 09:20:00,
2013-04-13 02:30:00,49.9,44.6,29.89,SSE,165,3.0,3.0,82,0.00,,,0.00,0,Wunderground v.1.15,2013-04-13 09:30:00,
2013-04-13 02:40:00,49.7,44.4,29.88,SE,137,4.0,4.0,82,0.00,,,0.00,0,Wunderground v.1.15,2013-04-13 09:40:00,
2013-04-13 02:50:00,49.5,44.2,29.88,SSE,149,1.0,1.0,82,0.00,,,0.00,0,Wunderground v.1.15,2013-04-13 09:50:00,
2013-04-13 03:00:00,49.3,44.4,29.89,WSW,250,1.0,3.0,83,0.00,,,0.00,0,Wunderground v.1.15,2013-04-13 10:00:00,
2013-04-13 03:10:00,49.3,44.0,29.89,South,181,2.0,2.0,82,0.00,,,0.00,0,Wunderground v.1.15,2013-04-13 10:10:00,
2013-04-13 03:20:00,49.2,43.9,29.89,South,169,3.0,3.0,82,0.00,,,0.00,0,Wunderground v.1.15,2013-04-13 10:20:00,
2013-04-13 03:30:00,49.2,43.9,29.88,SSE,157,0.0,3.0,82,0.00,,,0.00,0,Wunderground v.1.15,2013-04-13 10:30:00,
2013-04-13 03:40:00,49.0,43.7,29.89,SSE,160,3.0,3.0,82,0.00,,,0.00,0,Wunderground v.1.15,2013-04-13 10:40:00,
2013-04-13 04:00:00,49.0,43.7,29.88,South,178,4.0,4.0,82,0.00,,,0.00,0,Wunderground v.1.15,2013-04-13 11:00:00,
2013-04-13 04:10:00,49.0,43.7,29.88,SSE,159,2.0,2.0,82,0.00,,,0.00,0,Wunderground v.1.15,2013-04-13 11:10:00,
2013-04-13 04:20:00,49.0,43.7,29.88,SSW,192,0.0,0.0,82,0.00,,,0.00,0,Wunderground v.1.15,2013-04-13 11:20:00,
2013-04-13 04:40:00,48.8,43.5,29.88,South,173,2.0,2.0,82,0.00,,,0.00,0,Wunderground v.1.15,2013-04-13 11:40:00,
2013-04-13 04:50:00,48.8,43.5,29.88,South,177,1.0,1.0,82,0.00,,,0.00,0,Wunderground v.1.15,2013-04-13 11:50:00,
2013-04-13 05:00:00,48.7,43.5,29.89,South,176,0.0,0.0,82,0.00,,,0.00,0,Wunderground v.1.15,2013-04-13 12:00:00,
2013-04-13 05:10:00,48.6,43.4,29.89,South,169,1.0,1.0,82,0.00,,,0.00,0,Wunderground v.1.15,2013-04-13 12:10:00,
2013-04-13 05:20:00,48.5,43.3,29.89,SSE,165,2.0,2.0,82,0.00,,,0.00,0,Wunderground v.1.15,2013-04-13 12:20:00,
2013-04-13 05:30:00,48.5,43.6,29.89,South,181,4.0,4.0,83,0.00,,,0.00,0,Wunderground v.1.15,2013-04-13 12:30:00,
2013-04-13 05:40:00,48.4,43.5,29.88,SSE,161,1.0,1.0,83,0.00,,,0.00,0,Wunderground v.1.15,2013-04-13 12:40:00,
2013-04-13 05:50:00,48.4,43.8,29.89,SSE,150,2.0,2.0,84,0.00,,,0.00,0,Wunderground v.1.15,2013-04-13 12:50:00,
2013-04-13 06:00:00,48.5,43.9,29.89,South,171,2.0,3.0,84,0.00,,,0.00,0,Wunderground v.1.15,2013-04-13 13:00:00,
2013-04-13 06:30:00,48.3,43.7,29.90,SSW,192,1.0,1.0,84,0.00,,,0.00,0,Wunderground v.1.15,2013-04-13 13:30:00,
2013-04-13 06:50:00,48.3,43.7,29.89,SSE,168,4.0,4.0,84,0.00,,,0.00,12,Wunderground v.1.15,2013-04-13 13:50:00,
2013-04-13 07:00:00,48.4,43.8,29.89,South,173,3.0,5.0,84,0.00,,,0.00,26,Wunderground v.1.15,2013-04-13 14:00:00,
2013-04-13 07:10:00,48.6,44.0,29.91,SE,145,2.0,2.0,84,0.00,,,0.00,37,Wunderground v.1.15,2013-04-13 14:10:00,
2013-04-13 07:20:00,48.6,44.0,29.92,WSW,238,1.0,1.0,84,0.00,,,0.00,74,Wunderground v.1.15,2013-04-13 14:20:00,
2013-04-13 07:30:00,48.7,44.1,29.92,WSW,238,0.0,0.0,84,0.00,,,0.00,107,Wunderground v.1.15,2013-04-13 14:30:00,
2013-04-13 07:40:00,49.4,44.8,29.92,WSW,237,0.0,0.0,84,0.00,,,0.00,156,Wunderground v.1.15,2013-04-13 14:40:00,
2013-04-13 07:50:00,50.7,45.7,29.92,SSE,158,2.0,3.0,83,0.00,,,0.00,206,Wunderground v.1.15,2013-04-13 14:50:00,
2013-04-13 08:00:00,51.5,46.2,29.92,SE,141,5.0,5.0,82,0.00,,,0.00,246,Wunderground v.1.15,2013-04-13 15:00:00,
2013-04-13 08:10:00,52.3,46.3,29.92,SSE,157,3.0,5.0,80,0.00,,,0.00,255,Wunderground v.1.15,2013-04-13 15:10:00,
2013-04-13 08:20:00,53.0,46.3,29.93,SSE,157,3.0,3.0,78,0.00,,,0.00,239,Wunderground v.1.15,2013-04-13 15:20:00,
2013-04-13 08:30:00,53.8,46.8,29.93,SE,144,2.0,2.0,77,0.00,,,0.00,304,Wunderground v.1.15,2013-04-13 15:30:00,
2013-04-13 08:40:00,55.1,47.7,29.93,SSE,153,2.0,3.0,76,0.00,,,0.00,376,Wunderground v.1.15,2013-04-13 15:40:00,
2013-04-13 09:00:00,56.8,47.9,29.93,SE,130,3.0,3.0,72,0.00,,,0.00,387,Wunderground v.1.15,2013-04-13 16:00:00,
2013-04-13 09:10:00,57.3,48.3,29.93,SE,130,3.0,3.0,72,0.00,,,0.00,367,Wunderground v.1.15,2013-04-13 16:10:00,
2013-04-13 09:20:00,58.2,48.5,29.93,SE,141,1.0,1.0,70,0.00,,,0.00,508,Wunderground v.1.15,2013-04-13 16:20:00,
2013-04-13 09:30:00,59.2,47.4,29.93,SE,143,1.0,1.0,65,0.00,,,0.00,476,Wunderground v.1.15,2013-04-13 16:30:00,
2013-04-13 09:40:00,60.9,49.5,29.92,SE,137,0.0,0.0,66,0.00,,,0.00,538,Wunderground v.1.15,2013-04-13 16:40:00,
2013-04-13 09:50:00,62.1,49.8,29.92,SE,128,0.0,0.0,64,0.00,,,0.00,613,Wunderground v.1.15,2013-04-13 16:50:00,
2013-04-13 10:00:00,62.0,48.8,29.92,SSE,163,1.0,1.0,62,0.00,,,0.00,608,Wunderground v.1.15,2013-04-13 17:00:00,
2013-04-13 10:10:00,62.7,48.6,29.92,North,355,0.0,0.0,60,0.00,,,0.00,635,Wunderground v.1.15,2013-04-13 17:10:00,
2013-04-13 10:20:00,63.4,49.3,29.92,WNW,292,1.0,1.0,60,0.00,,,0.00,633,Wunderground v.1.15,2013-04-13 17:20:00,
2013-04-13 10:30:00,62.5,48.0,29.92,West,278,1.0,1.0,59,0.00,,,0.00,584,Wunderground v.1.15,2013-04-13 17:30:00,
2013-04-13 10:50:00,65.3,50.1,29.92,ENE,67,1.0,1.0,58,0.00,,,0.00,756,Wunderground v.1.15,2013-04-13 17:50:00,
2013-04-13 11:00:00,64.7,50.5,29.92,ESE,102,1.0,1.0,60,0.00,,,0.00,766,Wunderground v.1.15,2013-04-13 18:00:00,
2013-04-13 11:10:00,64.7,50.5,29.92,WNW,298,1.0,1.0,60,0.00,,,0.00,824,Wunderground v.1.15,2013-04-13 18:10:00,
2013-04-13 11:20:00,66.1,50.9,29.92,WSW,255,1.0,2.0,58,0.00,,,0.00,837,Wunderground v.1.15,2013-04-13 18:20:00,
2013-04-13 11:30:00,68.0,50.7,29.91,NNW,338,1.0,1.0,54,0.00,,,0.00,744,Wunderground v.1.15,2013-04-13 18:30:00,
2013-04-13 11:40:00,66.7,51.5,29.91,East,92,1.0,2.0,58,0.00,,,0.00,675,Wunderground v.1.15,2013-04-13 18:40:00,
2013-04-13 11:50:00,66.7,51.0,29.91,West,269,1.0,1.0,57,0.00,,,0.00,777,Wunderground v.1.15,2013-04-13 18:50:00,
2013-04-13 12:00:00,66.8,50.1,29.91,WNW,287,1.0,2.0,55,0.00,,,0.00,703,Wunderground v.1.15,2013-04-13 19:00:00,
2013-04-13 12:10:00,67.4,51.2,29.91,WSW,245,1.0,1.0,56,0.00,,,0.00,898,Wunderground v.1.15,2013-04-13 19:10:00,
2013-04-13 12:20:00,67.3,51.5,29.91,SE,130,1.0,1.0,57,0.00,,,0.00,886,Wunderground v.1.15,2013-04-13 19:20:00,
2013-04-13 12:30:00,68.4,51.1,29.90,SSE,155,1.0,2.0,54,0.00,,,0.00,918,Wunderground v.1.15,2013-04-13 19:30:00,
2013-04-13 12:40:00,70.2,52.8,29.90,NNE,18,1.0,1.0,54,0.00,,,0.00,896,Wunderground v.1.15,2013-04-13 19:40:00,
2013-04-13 12:50:00,70.5,52.5,29.89,NW,307,1.0,1.0,53,0.00,,,0.00,905,Wunderground v.1.15,2013-04-13 19:50:00,
2013-04-13 13:00:00,70.1,51.7,29.89,NE,49,1.0,1.0,52,0.00,,,0.00,826,Wunderground v.1.15,2013-04-13 20:00:00,
2013-04-13 13:10:00,70.9,52.9,29.89,NE,38,1.0,1.0,53,0.00,,,0.00,817,Wunderground v.1.15,2013-04-13 20:10:00,
2013-04-13 13:20:00,70.8,52.3,29.88,North,11,1.0,1.0,52,0.00,,,0.00,786,Wunderground v.1.15,2013-04-13 20:20:00,
2013-04-13 13:30:00,70.1,51.7,29.88,NNW,336,1.0,1.0,52,0.00,,,0.00,809,Wunderground v.1.15,2013-04-13 20:30:00,
2013-04-13 13:40:00,71.1,52.0,29.87,East,98,1.0,3.0,51,0.00,,,0.00,826,Wunderground v.1.15,2013-04-13 20:40:00,
2013-04-13 13:50:00,72.1,53.0,29.87,NNE,16,0.0,0.0,51,0.00,,,0.00,796,Wunderground v.1.15,2013-04-13 20:50:00,
2013-04-13 14:00:00,72.5,53.3,29.86,ENE,61,1.0,1.0,51,0.00,,,0.00,766,Wunderground v.1.15,2013-04-13 21:00:00,
2013-04-13 14:10:00,72.3,52.1,29.86,SSW,198,1.0,1.0,49,0.00,,,0.00,693,Wunderground v.1.15,2013-04-13 21:10:00,
2013-04-13 14:20:00,72.1,52.4,29.86,NNE,22,1.0,1.0,50,0.00,,,0.00,684,Wunderground v.1.15,2013-04-13 21:20:00,
2013-04-13 14:30:00,72.4,53.8,29.86,NNE,33,1.0,2.0,52,0.00,,,0.00,846,Wunderground v.1.15,2013-04-13 21:30:00,
2013-04-13 14:40:00,71.0,51.4,29.86,NW,314,1.0,2.0,50,0.00,,,0.00,693,Wunderground v.1.15,2013-04-13 21:40:00,
2013-04-13 14:50:00,71.3,50.6,29.86,North,355,2.0,2.0,48,0.00,,,0.00,854,Wunderground v.1.15,2013-04-13 21:50:00,
2013-04-13 15:00:00,71.5,50.2,29.86,WNW,296,1.0,1.0,47,0.00,,,0.00,849,Wunderground v.1.15,2013-04-13 22:00:00,
2013-04-13 15:10:00,72.0,51.2,29.86,WSW,246,0.0,3.0,48,0.00,,,0.00,777,Wunderground v.1.15,2013-04-13 22:10:00,
2013-04-13 15:20:00,72.0,51.8,29.85,West,272,1.0,3.0,49,0.00,,,0.00,786,Wunderground v.1.15,2013-04-13 22:20:00,
2013-04-13 15:30:00,71.2,51.1,29.86,ENE,68,1.0,1.0,49,0.00,,,0.00,733,Wunderground v.1.15,2013-04-13 22:30:00,
2013-04-13 15:40:00,71.6,50.9,29.85,ENE,59,1.0,1.0,48,0.00,,,0.00,770,Wunderground v.1.15,2013-04-13 22:40:00,
2013-04-13 15:50:00,71.3,50.6,29.85,NE,52,1.0,1.0,48,0.00,,,0.00,726,Wunderground v.1.15,2013-04-13 22:50:00,
2013-04-13 16:00:00,70.8,50.7,29.85,SSE,159,1.0,2.0,49,0.00,,,0.00,675,Wunderground v.1.15,2013-04-13 23:00:00,
2013-04-13 16:10:00,70.9,50.8,29.84,NE,46,1.0,3.0,49,0.00,,,0.00,661,Wunderground v.1.15,2013-04-13 23:10:00,
2013-04-13 16:20:00,70.4,49.8,29.84,NNE,18,1.0,1.0,48,0.00,,,0.00,596,Wunderground v.1.15,2013-04-13 23:20:00,
2013-04-13 16:30:00,69.7,50.2,29.84,WNW,299,1.0,2.0,50,0.00,,,0.00,585,Wunderground v.1.15,2013-04-13 23:30:00,
2013-04-13 16:40:00,69.2,49.2,29.84,East,84,1.0,1.0,49,0.00,,,0.00,533,Wunderground v.1.15,2013-04-13 23:40:00,
2013-04-13 16:50:00,68.3,48.9,29.84,ESE,102,1.0,1.0,50,0.00,,,0.00,346,Wunderground v.1.15,2013-04-13 23:50:00,
2013-04-13 17:00:00,68.6,49.7,29.84,ENE,63,1.0,3.0,51,0.00,,,0.00,276,Wunderground v.1.15,2013-04-14 00:00:00,
2013-04-13 17:10:00,68.4,49.6,29.84,NNE,33,1.0,1.0,51,0.00,,,0.00,464,Wunderground v.1.15,2013-04-14 00:10:00,
2013-04-13 17:20:00,68.5,49.1,29.84,NNE,21,1.0,1.0,50,0.00,,,0.00,306,Wunderground v.1.15,2013-04-14 00:20:00,
2013-04-13 17:30:00,68.4,49.0,29.85,NNE,18,1.0,1.0,50,0.00,,,0.00,341,Wunderground v.1.15,2013-04-14 00:30:00,
2013-04-13 17:40:00,68.3,47.8,29.85,NNE,14,1.0,1.0,48,0.00,,,0.00,334,Wunderground v.1.15,2013-04-14 00:40:00,
2013-04-13 17:50:00,67.7,47.8,29.85,East,82,1.0,1.0,49,0.00,,,0.00,264,Wunderground v.1.15,2013-04-14 00:50:00,
2013-04-13 18:00:00,67.1,47.8,29.85,NNE,26,0.0,1.0,50,0.00,,,0.00,229,Wunderground v.1.15,2013-04-14 01:00:00,
2013-04-13 18:10:00,66.8,47.0,29.85,SE,132,0.0,0.0,49,0.00,,,0.00,292,Wunderground v.1.15,2013-04-14 01:10:00,
2013-04-13 18:20:00,66.6,46.8,29.85,SE,130,0.0,0.0,49,0.00,,,0.00,167,Wunderground v.1.15,2013-04-14 01:20:00,
2013-04-13 18:30:00,66.1,46.9,29.85,SE,130,0.0,2.0,50,0.00,,,0.00,104,Wunderground v.1.15,2013-04-14 01:30:00,
2013-04-13 18:40:00,65.3,46.7,29.86,West,276,1.0,2.0,51,0.00,,,0.00,72,Wunderground v.1.15,2013-04-14 01:40:00,
2013-04-13 18:50:00,64.1,46.6,29.87,SE,143,1.0,1.0,53,0.00,,,0.00,58,Wunderground v.1.15,2013-04-14 01:50:00,
2013-04-13 19:00:00,63.1,46.2,29.86,SSE,159,1.0,1.0,54,0.00,,,0.00,51,Wunderground v.1.15,2013-04-14 02:00:00,
2013-04-13 19:10:00,62.2,45.3,29.86,South,187,1.0,4.0,54,0.00,,,0.00,35,Wunderground v.1.15,2013-04-14 02:10:00,
2013-04-13 19:20:00,61.6,45.7,29.87,SSE,148,3.0,3.0,56,0.00,,,0.00,25,Wunderground v.1.15,2013-04-14 02:20:00,
2013-04-13 19:30:00,61.2,45.8,29.87,SSE,161,1.0,5.0,57,0.00,,,0.00,14,Wunderground v.1.15,2013-04-14 02:30:00,
2013-04-13 19:40:00,60.2,45.8,29.87,SSE,148,3.0,3.0,59,0.00,,,0.00,5,Wunderground v.1.15,2013-04-14 02:40:00,
2013-04-13 19:50:00,59.0,45.6,29.87,SE,144,3.0,3.0,61,0.00,,,0.00,5,Wunderground v.1.15,2013-04-14 02:50:00,
2013-04-13 20:00:00,58.5,45.5,29.87,South,172,1.0,1.0,62,0.00,,,0.00,0,Wunderground v.1.15,2013-04-14 03:00:00,
2013-04-13 20:10:00,57.8,45.3,29.87,SE,143,2.0,3.0,63,0.00,,,0.00,0,Wunderground v.1.15,2013-04-14 03:10:00,
2013-04-13 20:20:00,56.9,45.3,29.88,SE,146,3.0,3.0,65,0.00,,,0.00,0,Wunderground v.1.15,2013-04-14 03:20:00,
2013-04-13 20:30:00,56.2,45.0,29.88,SSE,156,4.0,4.0,66,0.00,,,0.00,0,Wunderground v.1.15,2013-04-14 03:30:00,
2013-04-13 20:40:00,55.6,44.8,29.89,SSE,151,3.0,4.0,67,0.00,,,0.00,0,Wunderground v.1.15,2013-04-14 03:40:00,
2013-04-13 20:50:00,55.2,44.8,29.90,SSE,149,3.0,3.0,68,0.00,,,0.00,0,Wunderground v.1.15,2013-04-14 03:50:00,
2013-04-13 21:00:00,54.9,44.9,29.90,SSE,147,3.0,4.0,69,0.00,,,0.00,0,Wunderground v.1.15,2013-04-14 04:00:00,
2013-04-13 21:10:00,54.5,44.5,29.91,SE,142,3.0,3.0,69,0.00,,,0.00,0,Wunderground v.1.15,2013-04-14 04:10:00,
2013-04-13 21:20:00,54.1,44.5,29.91,SE,140,4.0,5.0,70,0.00,,,0.00,0,Wunderground v.1.15,2013-04-14 04:20:00,
2013-04-13 21:30:00,53.7,44.5,29.91,SSE,159,4.0,4.0,71,0.00,,,0.00,0,Wunderground v.1.15,2013-04-14 04:30:00,
2013-04-13 21:40:00,53.3,44.5,29.91,SSE,156,3.0,3.0,72,0.00,,,0.00,0,Wunderground v.1.15,2013-04-14 04:40:00,
2013-04-13 21:50:00,53.0,44.6,29.92,SSE,158,3.0,3.0,73,0.00,,,0.00,0,Wunderground v.1.15,2013-04-14 04:50:00,
2013-04-13 22:00:00,52.6,44.5,29.92,SE,142,3.0,3.0,74,0.00,,,0.00,0,Wunderground v.1.15,2013-04-14 05:00:00,
2013-04-13 22:10:00,52.3,44.3,29.92,SSE,150,4.0,4.0,74,0.00,,,0.00,0,Wunderground v.1.15,2013-04-14 05:10:00,
2013-04-13 22:20:00,52.0,44.3,29.92,SSE,163,2.0,2.0,75,0.00,,,0.00,0,Wunderground v.1.15,2013-04-14 05:20:00,
2013-04-13 22:30:00,51.8,44.1,29.92,SSE,152,2.0,3.0,75,0.00,,,0.00,0,Wunderground v.1.15,2013-04-14 05:30:00,
2013-04-13 22:40:00,51.6,43.9,29.92,SSE,151,2.0,2.0,75,0.00,,,0.00,0,Wunderground v.1.15,2013-04-14 05:40:00,
2013-04-13 22:50:00,51.4,44.1,29.92,SE,137,2.0,3.0,76,0.00,,,0.00,0,Wunderground v.1.15,2013-04-14 05:50:00,
2013-04-13 23:00:00,51.2,44.2,29.92,SSE,149,4.0,4.0,77,0.00,,,0.00,0,Wunderground v.1.15,2013-04-14 06:00:00,
2013-04-13 23:10:00,51.2,43.9,29.92,SE,142,2.0,5.0,76,0.00,,,0.00,0,Wunderground v.1.15,2013-04-14 06:10:00,
2013-04-13 23:20:00,51.0,43.7,29.92,SE,141,1.0,1.0,76,0.00,,,0.00,0,Wunderground v.1.15,2013-04-14 06:20:00,
2013-04-13 23:30:00,51.0,43.7,29.93,South,176,1.0,3.0,76,0.00,,,0.00,0,Wunderground v.1.15,2013-04-14 06:30:00,
2013-04-13 23:40:00,50.9,43.6,29.93,SSE,157,1.0,1.0,76,0.00,,,0.00,0,Wunderground v.1.15,2013-04-14 06:40:00,
2013-04-13 23:50:00,50.7,43.4,29.94,SSE,149,2.0,2.0,76,0.00,,,0.00,0,Wunderground v.1.15,2013-04-14 06:50:00,